{"data":{"norad_id":55614,"epoch":"2026-05-24T18:14:52.486944Z","epoch_age_seconds":95730,"freshness":"FRESH","line1":"1 55614U 23020AX  26144.76032971  .00000863  00000+0  40899-4 0  9990","line2":"2 55614  43.0027 269.8385 0001492 263.6216  96.4466 15.27577185180846","mean_motion":15.27577185,"eccentricity":0.0001492,"inclination_deg":43.0027,"raan_deg":269.8385,"arg_perigee_deg":263.6216,"mean_anomaly_deg":96.4466,"bstar":4.0899e-5,"rev_number":18084,"period_min":94.266922427229,"perigee_km":482.03383495213,"apogee_km":484.08121539844,"semimajor_km":6861.1945251753,"source":"CELESTRAK","updated_at":"2026-05-25T13:38:17.844187Z"}}